Location: Omaha
(41.2590°N, 95.9380°W)
Time: 00:57:01
(UTC-05:00)

Envisat - Pass Details

Date: 14 October 2017
Orbit: 764 x 766 km, 98.2° (Epoch: 22 October)

Event Time Altitude Azimuth Distance (km) Brightness Sun altitude
Exits shadow 21:00:13 54° 18° (NNE) 933 3.3 -26.3°
Drops below altitude 10° 21:04:16 10° 352° (N) 2,310 5.7 -27.0°
Sets 21:06:35 0° 350° (N) 3,240 6.5 -27.5°
